Weather History for Kenai, AK

Change the Weather History Date:

Wednesday, June 25, 2014

  Actual Average Record
Temperature  
Mean Temperature 52 °F -  
Max Temperature 55 °F 59 °F 79 °F (1953)
Min Temperature 48 °F 45 °F 37 °F (1951)
Degree Days  
Heating Degree Days 14    
Growing Degree Days 2 (Base 50)    
Moisture  
Dew Point 46 °F    
Average Humidity 83    
Maximum Humidity 100    
Minimum Humidity 57    
Precipitation  
Precipitation 0.05 in - - ()
Sea Level Pressure  
Sea Level Pressure 29.77 in    
Wind  
Wind Speed 10 mph (SSW)    
Max Wind Speed 17 mph    
Max Gust Speed 22 mph    
Visibility 10 miles    
Events Rain    
Averages and records for this station are not official NWS values.
T = Trace of Precipitation, MM = Missing Value Source: NWS Daily Summary

Daily Weather History Graph

Daily Weather History Graph

Search for Another Location

Airport:

Trip Planner

Search our weather history database for the weather conditions in past years. The results will help you decide how hot, cold, wet, or windy it might be!

Date:

Astronomy

Jun. 25, 2014 Rise Set
Actual Time 4:35 AM AKDT 11:39 PM AKDT
Civil Twilight 2:20 AM AKDT 1:50 AM AKDT
Nautical Twilight Sun does not rise Sun does not rise
Astronomical Twilight Sun does not rise Sun does not rise
Moon 4:12 AM AKDT (6/25) 9:44 PM AKDT (6/25)
Length of Visible Light 23h 30m
Length of Day
19h 03m
Waning Crescent, 2% of the Moon is Illuminated
Jun 25
Waning Crescent
Jun 27
New
Jul 5
First Quarter
Jul 12
Full
Jul 18
Last Quarter

Hourly Weather History & Observations

Time (AKDT) Temp. Dew Point Humidity Pressure Visibility Wind Dir Wind Speed Gust Speed Precip Events Conditions
12:53 AM 55.0 °F 41.0 °F 59% 29.81 in 10.0 mi South 6.9 mph - N/A   Overcast
1:53 AM 55.0 °F 39.9 °F 57% 29.82 in 10.0 mi South 5.8 mph - N/A   Overcast
2:53 AM 51.1 °F 43.0 °F 74% 29.82 in 10.0 mi SSW 6.9 mph - N/A   Overcast
3:53 AM 50.0 °F 46.0 °F 86% 29.81 in 10.0 mi SSW 6.9 mph - N/A   Overcast
4:53 AM 50.0 °F 46.0 °F 86% 29.81 in 10.0 mi SSW 4.6 mph - N/A   Mostly Cloudy
5:53 AM 50.0 °F 46.0 °F 86% 29.80 in 10.0 mi SSW 4.6 mph - N/A   Overcast
6:53 AM 50.0 °F 46.9 °F 89% 29.80 in 10.0 mi SE 5.8 mph - 0.00 in   Overcast
7:53 AM 51.1 °F 46.9 °F 86% 29.80 in 10.0 mi South 5.8 mph - 0.00 in   Overcast
8:53 AM 52.0 °F 46.9 °F 83% 29.80 in 10.0 mi SSW 9.2 mph - N/A   Overcast
9:53 AM 53.1 °F 46.9 °F 80% 29.79 in 10.0 mi SSW 12.7 mph - N/A   Overcast
10:53 AM 52.0 °F 46.9 °F 83% 29.79 in 10.0 mi SSW 10.4 mph - N/A   Overcast
11:53 AM 52.0 °F 46.0 °F 80% 29.78 in 10.0 mi SSW 12.7 mph - N/A   Overcast
12:53 PM 52.0 °F 46.9 °F 83% 29.77 in 10.0 mi SSW 11.5 mph - N/A   Overcast
1:53 PM 53.1 °F 46.9 °F 80% 29.77 in 10.0 mi SSW 12.7 mph - N/A   Partly Cloudy
2:17 PM 51.8 °F 46.4 °F 82% 29.76 in 10.0 mi SSW 12.7 mph - N/A   Partly Cloudy
2:53 PM 53.1 °F 46.9 °F 80% 29.76 in 10.0 mi South 15.0 mph - N/A   Partly Cloudy
3:53 PM 51.1 °F 46.0 °F 83% 29.75 in 10.0 mi SSW 15.0 mph - N/A   Overcast
4:22 PM 51.8 °F 46.4 °F 82% 29.75 in 10.0 mi SSW 15.0 mph - N/A   Overcast
4:53 PM 52.0 °F 46.0 °F 80% 29.75 in 10.0 mi SSW 16.1 mph - N/A   Overcast
5:16 PM 51.8 °F 46.4 °F 82% 29.74 in 10.0 mi SSW 16.1 mph 21.9 mph N/A   Mostly Cloudy
5:53 PM 51.1 °F 46.0 °F 83% 29.74 in 10.0 mi SW 17.3 mph 21.9 mph N/A   Overcast
6:53 PM 51.1 °F 45.0 °F 80% 29.74 in 10.0 mi SSW 15.0 mph - N/A   Overcast
7:53 PM 50.0 °F 46.0 °F 86% 29.73 in 10.0 mi SSW 11.5 mph - 0.00 in   Overcast
8:53 PM 48.9 °F 46.0 °F 90% 29.73 in 8.0 mi SSW 11.5 mph - 0.01 in Rain Light Rain
9:18 PM 48.2 °F 46.4 °F 93% 29.71 in 7.0 mi SSW 12.7 mph - 0.01 in Rain Light Rain
9:53 PM 48.9 °F 46.0 °F 90% 29.72 in 8.0 mi SSW 13.8 mph - 0.02 in Rain Light Rain
10:34 PM 48.2 °F 48.2 °F 100% 29.71 in 10.0 mi South 13.8 mph - 0.01 in Rain Light Rain
10:53 PM 48.9 °F 48.0 °F 97% 29.72 in 9.0 mi South 11.5 mph - 0.01 in Rain Light Rain
11:53 PM 48.9 °F 48.0 °F 97% 29.72 in 9.0 mi SSW 12.7 mph - 0.01 in Rain Light Rain